Location: Newark
(30.1000°N, 109.4667°E)
Time: 00:18:16
(UTC+00:00)

Courier 1B Rocket - Pass Details

Date: 21 February 2020
Orbit: 920 x 1202 km, 28.2° (Epoch: 08 April)

Event Time Altitude Azimuth Distance (km) Brightness Sun altitude
Exits shadow 20:10:14 31° 110° (ESE) 1,753 6.6 -40.8°
Drops below altitude 10° 20:13:43 10° 105° (ESE) 2,909 8.0 -40.1°
Sets 20:16:34 0° 103° (ESE) 3,908 8.9 -39.5°
